Regional Weather Roundup
Issued by NWS

Home | Current Version | Previous Version | Text Only | Print | Product List | Glossary On
Versions: 1 2 3 4 5 6 7 8 9 10 11 12 13 14 15 16 17 18 19 20 21 22 23 24 25 26 27 28 29 30 31 32 33 34 35 36 37 38 39 40 41 42 43 44 45 46 47 48 49 50
000
ASUS43 KMPX 290010
RWRMN
WEATHER ROUNDUP FOR MINNESOTA
NATIONAL WEATHER SERVICE TWIN CITIES/CHANHASSEN MN
600 PM CST SUN DEC 28 2014


NOTE: "FAIR" INDICATES FEW OR NO CLOUDS BELOW 12,000 FEET WITH NO
SIGNIFICANT WEATHER AND/OR OBSTRUCTIONS TO VISIBILITY. N/A MEANS
CURRENT SKY AND/OR WEATHER CONDITIONS ARE NOT AVAILABLE.

MNZ060>063-068>070-290100-
   Twin Cities Metro

CITY           SKY/WX    TMP DP  RH WIND       PRES   REMARKS
TWIN CITIES    FAIR      17   8  67 N6        30.26R WCI   9
6HR MIN TEMP:  17; 6HR MAX TEMP:  24;

ST PAUL        FAIR      18  10  71 N7        30.27R WCI   9
CRYSTAL        CLEAR     16   5  62 N3        30.25R
BLAINE         CLEAR     16   9  73 N5        30.25R WCI   9
LAKEVILLE      CLOUDY    12  10  92 CALM      30.24R FOG
EDEN PRAIRIE   PTCLDY    18  11  74 N5        30.24R WCI  11
6HR MIN TEMP:  18; 6HR MAX TEMP:  24;

SOUTH ST PAUL  CLEAR     20  11  68 N3        30.26R
LAKE ELMO      FAIR      18  10  73 N3        30.26R
$$
MNZ001>005-007-008-013>017-022>024-027-028-290100-
   Northwest Minnesota

CITY           SKY/WX    TMP DP  RH WIND       PRES   REMARKS
BEMIDJI        CLEAR     -2  -7  78 W6        30.29R WCI -14
HALLOCK        CLEAR     -6 -11  77 N7        30.41S WCI -20
ROSEAU         CLEAR     -4  -9  77 W8        30.36R WCI -19
WARROAD        CLEAR     -4  -9  77 NW7       30.34R WCI -18
THIEF RVR FALL CLEAR     -6  -9  84 NW10      30.35R WCI -23
CROOKSTON      CLEAR     -4  -9  77 N9        30.41R WCI -20
FOSSTON        CLEAR     -6  -9  84 CALM      30.33R
DETROIT LAKES  CLEAR      3   0  85 N10       30.31R WCI -12
MOORHEAD       CLEAR      0  -4  85 N12       30.38R WCI -18
PARK RAPIDS    CLEAR      6  -4  63 N7        30.27R WCI  -6
MAHNOMEN       FAIR      -1  -7  78 N8        30.33R WCI -16
$$
MNZ006-009>011-018-025>026-290100-
   North Central Minnesota

CITY           SKY/WX    TMP DP  RH WIND       PRES   REMARKS
BAUDETTE       CLEAR     -3 -10  72 W3        30.30R
FLAG ISLAND    CLEAR     -4 -11  71 NW12      30.32S WCI -22
INTL FALLS     CLEAR     -4 -11  72 NW8       30.29R WCI -19
6HR MIN TEMP:  -4; 6HR MAX TEMP:   3;

WASKISH        CLEAR      1  -4  78 NW5       30.30R WCI  -8
BIG FORK       CLEAR      1  -6  71 CALM      30.27S
LONGVILLE      CLEAR      3  -2  78 CALM      30.28R
GRAND RAPIDS   CLEAR      3  -6  66 NW7       30.24R WCI  -9
CRANE LAKE     PTCLDY    -2  -8  78 CALM      30.29R
ORR            CLEAR      0  -9  65 CALM      30.23R
COOK           CLEAR      0  -8  71 CALM      30.25R
WALKER         FAIR       2  -5  72 N3        30.28R
$$
MNZ012-019>021-037-290100-
   Northeast Minnesota

CITY           SKY/WX    TMP DP  RH WIND       PRES   REMARKS
DULUTH         CLEAR      5  -5  63 NW6       30.22R WCI  -6
6HR MIN TEMP:   5; 6HR MAX TEMP:  10;

ELY            CLEAR     -2  -8  78 NW3       30.22R
HIBBING        CLEAR      1  -7  68 NW5       30.24R WCI  -9
EVELETH        CLEAR      5  -4  66 NW3       30.25R
DULUTH HARBOR  CLEAR     12   0  57 CALM      30.31R
TWO HARBORS    CLEAR      7   0  72 CALM      30.23R
SILVER BAY     CLEAR      7  -2  66 CALM      30.22R
GRAND MARAIS     N/A      7  -3  64 VRB6      30.25R WCI  -3
G MARAIS ARPRT PTCLDY    -2  -9  71 NW10G17   30.10S WCI -19
$$
MNZ029>031-032-039>041-046>048-054>057-064-290100-
   West Central Minnesota

CITY           SKY/WX    TMP DP  RH WIND       PRES   REMARKS
FERGUS FALLS   CLEAR      7  -2  66 N9        30.34R WCI  -7
WHEATON        PTCLDY     5   0  78 NW13G18   30.34R WCI -12
MORRIS         CLEAR     12   7  79 NW13      30.27R WCI  -3
ALEXANDRIA     CLEAR     13   3  64 N7        30.25R WCI   3
ELBOW LAKE     FAIR      10   4  77 N9        30.28R WCI  -3
WADENA         CLEAR      9   0  66 NE3       30.27R
GLENWOOD       FAIR      10   1  67 N7        30.25R WCI   0
APPLETON       CLOUDY    14   7  73 N16       30.28R WCI  -2
BENSON         MOCLDY    14   9  79 N7        30.27R WCI   4
ORTONVILLE     CLOUDY     9   3  78 N14       30.28S WCI  -8
MADISON        CLOUDY    16   9  73 N13       30.27S WCI   2
WILLMAR        MOCLDY    18  10  73 N6        30.26R WCI   9
$$
MNZ033>034-036-042>043-049>051-058-059-290100-
   Central Minnesota

CITY           SKY/WX    TMP DP  RH WIND       PRES   REMARKS
ST CLOUD       CLEAR     15   3  59 N5        30.26R WCI   8
6HR MIN TEMP:  15; 6HR MAX TEMP:  24;

SAUK CENTRE    FAIR      11   1  61 N5        30.26R WCI   3
PAYNESVILLE    CLEAR     11   4  74 N7        30.25R WCI   0
AITKIN         CLEAR      9   0  66 CALM      30.26R
PINE RIVER     CLEAR      5  -2  72 CALM      30.30R
BRAINERD       CLEAR      8  -1  66 N7        30.28R WCI  -3
STAPLES        CLEAR      9   0  66 N7        30.27R WCI  -3
LONG PRAIRIE   FAIR      10   1  67 NW3       30.27R
LITTLE FALLS   CLEAR     12   0  57 CALM      30.28R
LITCHFIELD     PTCLDY    12  10  92 N5        30.25S WCI   4
BUFFALO        CLEAR     14   8  76 NW3       30.27R
MAPLE LAKE     CLEAR     14   7  73 NW3       30.27R
$$
MNZ037-044-045-052-053-290100-
   East Central Minnesota

CITY           SKY/WX    TMP DP  RH WIND       PRES   REMARKS
PRINCETON      FAIR      12   1  62 NW6       30.26R WCI   3
MORA           CLEAR     10   1  67 CALM      30.28R
CAMBRIDGE      CLEAR     10   1  67 CALM      30.25R
RUSH CITY      CLEAR     10   3  71 CALM      30.27R
MOOSE LAKE     CLEAR      9  -4  56 N3        30.25R
HINCKLEY       FAIR      12   0  57 CALM      30.27R
CLOQUET        CLEAR      5  -6  61 W3        30.25R
MCGREGOR       PTCLDY     9   1  72 CALM      30.27R
$$
MNZ071>073-080-081-089-090-097-098-290100-
   Southwest Minnesota

CITY           SKY/WX    TMP DP  RH WIND       PRES   REMARKS
MONTEVIDEO     CLOUDY    16  10  79 N12       30.26S WCI   3
GRANITE FALLS  CLOUDY    19  15  83 NW8       30.26R WCI   9
CANBY          CLOUDY    13   9  85 N9        30.26S WCI   1
MARSHALL       CLOUDY    16   9  73 N16       30.22S WCI   0
REDWOOD FALLS  MOCLDY    22  16  78 N5        30.23R WCI  16
OLIVIA         CLOUDY    19  14  79 N8        30.24R WCI   9
PIPESTONE      CLOUDY    18  18 100 NE10      30.16S WCI   6
WINDOM         CLOUDY    18  16  93 CALM      30.20R FOG
WORTHINGTON    CLOUDY    19 -26  12 NE16      30.17S WCI   5
JACKSON        CLOUDY    18  14  86 N7        30.19R FOG     WCI   8
TRACY          CLOUDY    18  16  91 N13       30.21S WCI   5
SLAYTON        CLOUDY    17  15  94 N9        30.18S FOG     WCI   5
$$
MNZ065>067-074>077-082>085-091>093-290100-
   South Central Minnesota

CITY           SKY/WX    TMP DP  RH WIND       PRES   REMARKS
MANKATO        PTCLDY    16  12  86 N5        30.22S WCI   9
NEW ULM        PTCLDY    16  16 100 CALM      30.23R
ST JAMES       CLOUDY    18  16  93 N5        30.23S FOG     WCI  11
FAIRMONT       CLOUDY    18  14  86 N9        30.19S WCI   6
GLENCOE        CLOUDY    18  13  80 N5        30.24R WCI  11
FARIBAULT      PTCLDY    12  10  92 CALM      30.24R
OWATONNA       PTCLDY    16  10  79 N6        30.22R WCI   7
WASECA         PTCLDY    18  14  86 NE6       30.23R WCI   9
ALBERT LEA     CLEAR     12  12 100 N3        30.20R
$$
MNZ078>079-086>088-094>096-290100-
   Southeast Minnesota

CITY           SKY/WX    TMP DP  RH WIND       PRES   REMARKS
ROCHESTER      CLEAR     15  11  83 N5        30.21R WCI   8
6HR MIN TEMP:  14; 6HR MAX TEMP:  20;

RED WING       CLEAR     12   9  85 N5        30.25R WCI   4
STANTON        MOCLDY    15  12  88 CALM      30.23R FOG
DODGE CENTER   PTCLDY    16  14  93 NE5       30.20R WCI   9
WINONA         CLEAR     18  14  86 NW5       30.26R WCI  11
AUSTIN         PTCLDY    14  12  92 N3        30.20R
PRESTON        PTCLDY    15  11  85 N5        30.20R WCI   7
$$
ABBREVIATIONS USED IN REMARKS
   TC - TEMPERATURES IN CELSIUS
  WCI - WIND CHILL INDEX
   HX - HEAT INDEX
  VSB - VISIBILITY
$$



USA.gov is the U.S. government's official web portal to all federal, state and local government web resources and services.